Regional Weather Roundup
Issued by NWS Goodland, KS

Home | Current Version | Previous Version | Graphics & Text | Print | Product List | Glossary On
Versions: 1 2 3 4 5 6 7 8 9 10 11 12 13 14 15 16 17 18 19 20 21 22 23 24 25 26 27 28 29 30 31 32 33 34 35 36 37 38 39 40 41 42 43 44 45 46 47 48 49 50
399
ASUS43 KGLD 141059
RWRGLD

GOODLAND FORECAST AREA HOURLY WEATHER ROUNDUP
NATIONAL WEATHER SERVICE GOODLAND KS
400 AM MST THU DEC 14 2017

...OFFICIAL OBSERVATIONS...

CITY           SKY/WX    TMP DP  RH WIND       PRES   REMARKS
GOODLAND KS    MOCLDY    33  27  78 NW15      30.13R
HILL CITY KS   CLOUDY    33  22  63 NW7       30.11
IMPERIAL NEB   CLOUDY    36  27  69 W9        30.12F
MCCOOK NEB     CLOUDY    37  23  56 W9        30.11S
AKRON CO       LGT SNOW  29  27  92 W15       30.15S FOG     WCI  18
BURLINGTON CO  CLOUDY    32  28  85 N12       30.15S
LIMON CO       LGT SNOW  28  27  96 NW14      30.16S FOG     WCI  17
$$

...UNOFFICIAL OBSERVATIONS...

CITY           SKY/WX    TMP DP  RH WIND       PRES   REMARKS
LENORA KS        N/A     34  32  92 N5          N/A
NORTON KS      CLOUDY    36  19  51 NW7       30.08
SHARON SPRINGS   N/A     36  25  65 NW10        N/A
TRENTON NEB      N/A     36  32  85 NW7         N/A
KIT CARSON CO    N/A     33  27  77 CALM        N/A
YUMA CO        MIX PCPN  30  28  93 W8        30.15S
$$




USA.gov is the U.S. government's official web portal to all federal, state and local government web resources and services.